Regional Weather Roundup
Issued by NWS Memphis, TN

Home | Current Version | Previous Version | Text Only | Print | Product List | Glossary On
Versions: 1 2 3 4 5 6 7 8 9 10 11 12 13 14 15 16 17 18 19 20 21 22 23 24 25 26 27 28 29 30 31 32 33 34 35 36 37 38 39 40 41 42 43 44 45 46 47 48 49 50
262
ASUS44 KMEG 201900
RWRMEG
MEMPHIS CWA HOURLY WEATHER ROUNDUP
NATIONAL WEATHER SERVICE MEMPHIS TN
200 PM CDT TUE AUG 20 2019

...WEST TENNESSEE...

CITY           SKY/WX    TMP DP  RH WIND       PRES   REMARKS
MEMPHIS INTL   FAIR      94  74  52 S7        30.06F HX 104
NWS MEMPHIS      N/A     95 N/A N/A MISG        N/A
JACKSON        FAIR      94  75  54 SW6       30.06F HX 105
DYERSBURG      FAIR      92  78  63 SE6       30.07S HX 107


...EASTERN ARKANSAS...

CITY           SKY/WX    TMP DP  RH WIND       PRES   REMARKS
JONESBORO      PTSUNNY   91  76  61 S5        30.04F HX 103
WEST MEMPHIS   FAIR      93  76  57 S9        30.05S HX 105
BATESVILLE     FAIR      94  77  57 VRB6      30.06S HX 108
NEWPORT        FAIR      93  76  57 SE9       30.05S HX 105
WALNUT RIDGE   FAIR      94  79  61 S12       30.04S HX 111
BLYTHEVILLE    FAIR      94  75  54 SW7       30.05F HX 105
SEARCY         FAIR      96  79  57 SE10      30.05F HX 114
STUTTGART      FAIR      93  75  55 SE7       30.06F HX 104
PINE BLUFF     FAIR      94  71  47 VRB7      30.05F HX 101
MONTICELLO     FAIR      95  71  45 VRB6      30.05F HX 102


...NORTH MISSISSIPPI...

CITY           SKY/WX    TMP DP  RH WIND       PRES   REMARKS
TUPELO         FAIR      93  71  48 S6        30.07F HX 100
OXFORD         PTSUNNY   93  70  46 SW6       30.08F HX  99
OLIVE BRANCH   MOSUNNY   91  72  52 S6        30.07F HX  98
TUNICA           N/A     90  73  58 SW6       30.07F HX  98
CLARKSDALE       N/A     93  77  59 SE5       30.07S HX 107
GREENWOOD      FAIR      91  73  55 CALM      30.06F HX  99
COLUMBUS       FAIR      91  72  54 SE5       30.05F HX  98
STARKVILLE     FAIR      90  72  55 CALM      30.07F HX  96
GOLDEN TRIANGL PTSUNNY   92  73  53 VRB3      30.06F HX 100


...SOUTHEAST MISSOURI...

CITY           SKY/WX    TMP DP  RH WIND       PRES   REMARKS
KENNETT          N/A    N/A N/A N/A MISG        N/A
MALDEN         FAIR      93  73  52 SW6       30.04F HX 102
WEST PLAINS    FAIR      94  73  50 SE6       30.08F HX 103
POPLAR BLUFF   FAIR      93  76  57 SW8       30.03F HX 105
CAPE GIRARDEAU FAIR      93  76  57 S8        30.01F HX 105


...NORTHWEST ALABAMA...

CITY           SKY/WX    TMP DP  RH WIND       PRES   REMARKS
MUSCLE SHOALS  FAIR      94  72  48 MISG      30.08F HX 102


...MIDDLE TENNESSEE...

CITY           SKY/WX    TMP DP  RH WIND       PRES   REMARKS
NASHVILLE      PTSUNNY   94  72  48 SW6       30.07F HX 102
CLARKSVILLE    PTSUNNY   92  72  51 CALM      30.05F HX  99


...WESTERN KENTUCKY...

CITY           SKY/WX    TMP DP  RH WIND       PRES   REMARKS
PADUCAH        FAIR      93  73  52 S5        30.02F HX 102
FORT CAMPBELL  FAIR      95  70  44 SW8       30.05F HX 101


...CENTRAL ARKANSAS...

CITY           SKY/WX    TMP DP  RH WIND       PRES   REMARKS
LITTLE ROCK    PTSUNNY   94  76  55 S6        30.04F HX 106


SKY/WX REPORTED AS FAIR MEANS FEW OR NO CLOUDS BELOW
12 THOUSAND FEET.





USA.gov is the U.S. government's official web portal to all federal, state and local government web resources and services.